Flag for U.S.A. Weather past 2 weeks in Fort Collins, Colorado, U.S.A.

Now
61 °F

Clear.


Feels Like: 61 °F
Forecast: 54 / 82 °F
Wind: 3 mph from Northwest

Location: Fort Collins-Loveland Municipal Airport

Current Time: Aug 2, 2014 at 1:43:01 AM

Latest Report: Aug 2, 2014 at 1:15 AM


Visibility: 10 mi

Pressure: 30.26 "Hg

Humidity: 63%

Dew point: 48 °F

Location of Fort CollinsLocation

Historic Weather in Fort Collins — Graph

°F

Fort Collins temperature yesterday

Maximum temperature yesterday: 82 °F (at 3:35 PM)
Minimum temperature yesterday: 55 °F (at 4:35 AM)
Average temperature yesterday: 70 °F

Past Weeks' High & Low Weather Summary

 TemperatureHumidityPressure
High99 °F (Jul 20, 2:55 PM)94% (Jul 18, 4:55 AM)30.40 "Hg (Jul 18, 4:55 AM)
Low55 °F (Jul 18, 4:55 AM)14% (Jul 20, 1:55 PM)29.93 "Hg (Jul 19, 4:55 PM)
Average72 °F56%30.18 "Hg
* Reported Jul 18 12:15 AM — Aug 2 12:35 AM, Fort Collins, Weather by CustomWeather, © 2014

Note: Actual official high and low records may vary slightly from our data, if they occured in-between our weather recording intervals... More about our weather records

Advertising

Fort Collins weather history for previous 24 hours

 ConditionsComfort  
Time TempWeatherWind HumidityBarometerVisibility
12:35 AM
Aug 2
63 °FClear.No wind64%30.25 "Hg10 mi
12:15 AM63 °FClear.No wind68%30.25 "Hg10 mi
11:55 PM
Aug 1
63 °FClear.No wind64%30.25 "Hg10 mi
11:35 PM63 °FClear.No wind64%30.26 "Hg10 mi
11:15 PM64 °FClear.6 mph56%30.25 "Hg10 mi
10:55 PM66 °FClear.5 mph56%30.25 "Hg10 mi
10:35 PM68 °FClear.No wind49%30.25 "Hg10 mi
10:15 PM66 °FClear.3 mph52%30.25 "Hg10 mi
9:55 PM66 °FClear.7 mph49%30.25 "Hg10 mi
9:35 PM72 °FClear.3 mph38%30.24 "Hg10 mi
8:55 PM73 °FSunny.5 mph36%30.23 "Hg10 mi
8:35 PM73 °FSunny.5 mph36%30.23 "Hg10 mi
8:15 PM73 °FSunny.3 mph38%30.22 "Hg10 mi
7:55 PM75 °FSunny.5 mph36%30.22 "Hg10 mi
7:35 PM77 °FSunny.6 mph32%30.21 "Hg10 mi
7:15 PM79 °FSunny.6 mph30%30.21 "Hg10 mi
6:55 PM79 °FSunny.8 mph30%30.21 "Hg10 mi
6:35 PM81 °FSunny.9 mph28%30.20 "Hg10 mi
6:15 PM81 °FSunny.9 mph24%30.20 "Hg10 mi
5:55 PM82 °FSunny.9 mph23%30.21 "Hg10 mi
5:35 PM82 °FSunny.8 mph25%30.21 "Hg10 mi
5:15 PM81 °FSunny.8 mph24%30.21 "Hg10 mi
4:55 PM82 °FSunny.12 mph25%30.21 "Hg10 mi
4:35 PM82 °FPassing clouds.12 mph26%30.21 "Hg10 mi
4:15 PM81 °FSunny.7 mph30%30.22 "Hg10 mi
3:55 PM82 °FSunny.10 mph30%30.22 "Hg10 mi
3:35 PM82 °FSunny.3 mph30%30.23 "Hg10 mi
2:55 PM79 °FSunny.7 mph32%30.24 "Hg10 mi
2:35 PM79 °FSunny.7 mph32%30.24 "Hg10 mi
2:15 PM79 °FSunny.7 mph32%30.24 "Hg10 mi
1:55 PM79 °FSunny.8 mph28%30.25 "Hg10 mi
1:35 PM79 °FSunny.9 mph32%30.26 "Hg10 mi
1:15 PM79 °FSunny.9 mph32%30.26 "Hg10 mi
12:55 PM81 °FSunny.10 mph30%30.26 "Hg10 mi
12:35 PM81 °FSunny.8 mph32%30.26 "Hg6 mi
12:15 PM79 °FPassing clouds.12 mph37%30.26 "Hg10 mi
11:55 AM77 °FSunny.10 mph36%30.26 "Hg10 mi
11:35 AM79 °FSunny.9 mph34%30.27 "Hg10 mi
11:15 AM77 °FSunny.12 mph42%30.27 "Hg10 mi
10:55 AM75 °FSunny.9 mph41%30.27 "Hg10 mi
10:35 AM73 °FSunny.5 mph44%30.27 "Hg10 mi
10:15 AM73 °FSunny.6 mph44%30.28 "Hg10 mi
9:55 AM72 °FSunny.3 mph44%30.28 "Hg10 mi
9:35 AM70 °FSunny.3 mph50%30.29 "Hg10 mi
9:15 AM70 °FSunny.No wind50%30.29 "Hg10 mi
8:55 AM68 °FSunny.3 mph56%30.29 "Hg10 mi
8:35 AM64 °FSunny.5 mph56%30.29 "Hg10 mi
8:15 AM64 °FSunny.3 mph56%30.29 "Hg10 mi
7:55 AM63 °FSunny.3 mph59%30.28 "Hg10 mi
7:35 AM61 °FSunny.3 mph63%30.29 "Hg10 mi
7:15 AM59 °FSunny.5 mph72%30.28 "Hg10 mi
6:55 AM57 °FClear.5 mph82%30.28 "Hg10 mi
6:35 AM57 °FClear.7 mph82%30.28 "Hg10 mi
6:15 AM55 °FClear.5 mph77%30.27 "Hg10 mi
5:55 AM55 °FClear.3 mph82%30.26 "Hg10 mi
5:35 AM55 °FClear.5 mph77%30.26 "Hg10 mi
5:15 AM55 °FClear.No wind82%30.26 "Hg10 mi
4:55 AM55 °FClear.No wind82%30.26 "Hg10 mi
4:35 AM55 °FClear.5 mph88%30.26 "Hg10 mi
4:15 AM57 °FClear.3 mph82%30.26 "Hg10 mi
3:55 AM57 °FClear.5 mph82%30.26 "Hg10 mi
3:35 AM57 °FClear.6 mph82%30.26 "Hg10 mi
3:15 AM59 °FClear.7 mph77%30.26 "Hg10 mi
2:55 AM61 °FClear.No wind72%30.26 "Hg10 mi
2:35 AM61 °FClear.3 mph68%30.26 "Hg10 mi
2:15 AM63 °FClear.No wind59%30.26 "Hg10 mi
1:55 AM61 °FClear.No wind63%30.26 "Hg10 mi
1:35 AM61 °FClear.No wind63%30.26 "Hg10 mi
1:15 AM63 °FClear.3 mph59%30.26 "Hg10 mi
Weather by CustomWeather, © 2014

See weather overviewHow to use our weather pages